When you browse on this site, cookies collect data to enhance your experience and personalize the content and advertising you see.
Visit our Privacy Policy to learn more. By continuing to use the site, you agree to this use of cookies and data.
  • In United Kingdom
  • List of Countries
  • For 7 days
  • Water Temperature
  • Weather Map
  • Weather Widgets
  • user-avatar
    Login

    Hourly Weather Plovdiv

    Today, 26 January, Sunday

    Time Temperature Precipitation Wind Pressure Humidity
    00:00 +8°C° 0 mm 1 mps 743 mmHg 60%
    01:00 +8°C° 0 mm 1 mps 743 mmHg 62%
    02:00 +8°C° 0 mm 1 mps 743 mmHg 65%
    03:00 +7°C° 0 mm 1 mps 743 mmHg 66%
    04:00 +7°C° 0 mm 1 mps 743 mmHg 68%
    05:00 +7°C° 0 mm 1 mps 743 mmHg 69%
    06:00 +7°C° 0 mm 1 mps 743 mmHg 69%
    07:00 +7°C° 0 mm 1 mps 743 mmHg 70%
    08:00 +7°C° 0 mm 1 mps 743 mmHg 70%
    09:00 +9°C° 0 mm 1 mps 743 mmHg 65%
    10:00 +10°C° 0 mm 0 mps 744 mmHg 59%
    11:00 +11°C° 0 mm 0 mps 744 mmHg 54%
    12:00 +12°C° 0 mm 0 mps 743 mmHg 53%
    13:00 +14°C° 0 mm 1 mps 743 mmHg 52%
    14:00 +14°C° 0 mm 1 mps 742 mmHg 51%
    15:00 +13°C° 0 mm 1 mps 742 mmHg 57%
    16:00 +12°C° 0 mm 1 mps 742 mmHg 63%
    17:00 +11°C° 0 mm 1 mps 742 mmHg 69%
    18:00 +10°C° 0 mm 1 mps 742 mmHg 70%
    19:00 +9°C° 0 mm 1 mps 742 mmHg 72%
    20:00 +9°C° 0 mm 1 mps 742 mmHg 73%
    21:00 +8°C° 0 mm 1 mps 742 mmHg 74%
    22:00 +8°C° 0 mm 1 mps 742 mmHg 76%
    23:00 +7°C° 0 mm 1 mps 741 mmHg 77%

    Tomorrow, 27 January, Monday

    Time Temperature Precipitation Wind Pressure Humidity
    00:00 +7°C° 0 mm 1 mps 741 mmHg 79%
    01:00 +7°C° 0 mm 1 mps 741 mmHg 81%
    02:00 +7°C° 0 mm 1 mps 740 mmHg 83%
    03:00 +7°C° 0 mm 1 mps 740 mmHg 84%
    04:00 +7°C° 0 mm 1 mps 740 mmHg 85%
    05:00 +7°C° 0 mm 1 mps 739 mmHg 85%
    06:00 +7°C° 0 mm 1 mps 739 mmHg 86%
    07:00 +6°C° 0 mm 1 mps 739 mmHg 86%
    08:00 +6°C° 0 mm 1 mps 739 mmHg 87%
    09:00 +8°C° 0 mm 1 mps 739 mmHg 82%
    10:00 +9°C° 0 mm 1 mps 739 mmHg 77%
    11:00 +9°C° 0 mm 0 mps 739 mmHg 73%
    12:00 +9°C° 0.1 mm 0 mps 738 mmHg 75%
    13:00 +9°C° 0.1 mm 0 mps 738 mmHg 77%
    14:00 +9°C° 0.1 mm 0 mps 737 mmHg 79%
    15:00 +9°C° 0.8 mm 1 mps 737 mmHg 83%
    16:00 +9°C° 0.8 mm 1 mps 737 mmHg 88%
    17:00 +8°C° 0.8 mm 1 mps 737 mmHg 92%
    18:00 +8°C° 0.4 mm 1 mps 737 mmHg 92%
    19:00 +8°C° 0.4 mm 1 mps 737 mmHg 92%
    20:00 +8°C° 0.4 mm 1 mps 737 mmHg 92%
    21:00 +8°C° 0 mm 1 mps 737 mmHg 92%
    22:00 +7°C° 0 mm 1 mps 737 mmHg 91%
    23:00 +7°C° 0 mm 1 mps 738 mmHg 90%

    Day after tomorrow, 28 January, Tuesday

    Time Temperature Precipitation Wind Pressure Humidity
    00:00 +6°C° 0 mm 2 mps 737 mmHg 89%
    01:00 +5°C° 0 mm 2 mps 737 mmHg 87%
    02:00 +5°C° 0 mm 2 mps 737 mmHg 86%
    03:00 +5°C° 0 mm 2 mps 737 mmHg 85%
    04:00 +5°C° 0 mm 2 mps 737 mmHg 84%
    05:00 +4°C° 0 mm 2 mps 737 mmHg 83%
    06:00 +4°C° 0 mm 2 mps 737 mmHg 81%
    07:00 +4°C° 0 mm 2 mps 737 mmHg 80%
    08:00 +4°C° 0 mm 2 mps 737 mmHg 78%
    09:00 +6°C° 0 mm 2 mps 737 mmHg 70%
    10:00 +9°C° 0 mm 1 mps 737 mmHg 63%
    11:00 +12°C° 0 mm 1 mps 737 mmHg 56%
    12:00 +12°C° 0 mm 1 mps 736 mmHg 54%
    13:00 +13°C° 0 mm 1 mps 736 mmHg 51%
    14:00 +14°C° 0 mm 1 mps 735 mmHg 49%
    15:00 +13°C° 0 mm 1 mps 735 mmHg 55%
    16:00 +12°C° 0 mm 1 mps 735 mmHg 61%
    17:00 +10°C° 0 mm 1 mps 734 mmHg 67%
    18:00 +9°C° 0 mm 1 mps 734 mmHg 69%
    19:00 +8°C° 0 mm 1 mps 735 mmHg 71%
    20:00 +7°C° 0 mm 2 mps 735 mmHg 74%
    21:00 +6°C° 0 mm 2 mps 734 mmHg 75%
    22:00 +6°C° 0 mm 2 mps 734 mmHg 76%
    23:00 +6°C° 0 mm 2 mps 734 mmHg 77%

    29 January, Wednesday

    Time Temperature Precipitation Wind Pressure Humidity
    00:00 +6°C° 0 mm 2 mps 733 mmHg 78%
    01:00 +6°C° 0 mm 2 mps 733 mmHg 79%
    02:00 +6°C° 0 mm 2 mps 733 mmHg 79%
    03:00 +6°C° 0 mm 2 mps 732 mmHg 80%
    04:00 +6°C° 0 mm 2 mps 731 mmHg 80%
    05:00 +6°C° 0 mm 2 mps 731 mmHg 80%
    06:00 +6°C° 0 mm 2 mps 731 mmHg 80%
    07:00 +6°C° 0 mm 2 mps 731 mmHg 81%
    08:00 +6°C° 0 mm 2 mps 731 mmHg 81%
    09:00 +7°C° 0 mm 3 mps 731 mmHg 73%
    10:00 +9°C° 0 mm 3 mps 732 mmHg 66%
    11:00 +11°C° 0 mm 4 mps 733 mmHg 58%
    12:00 +11°C° 0 mm 4 mps 732 mmHg 57%
    13:00 +10°C° 0 mm 4 mps 732 mmHg 56%
    14:00 +10°C° 0 mm 4 mps 732 mmHg 56%
    15:00 +10°C° 0 mm 3 mps 733 mmHg 56%
    16:00 +9°C° 0 mm 2 mps 733 mmHg 57%
    17:00 +9°C° 0 mm 1 mps 733 mmHg 58%
    18:00 +8°C° 0 mm 1 mps 734 mmHg 60%
    19:00 +8°C° 0 mm 1 mps 734 mmHg 62%
    20:00 +7°C° 0 mm 1 mps 734 mmHg 63%
    21:00 +6°C° 0 mm 1 mps 734 mmHg 61%
    22:00 +6°C° 0 mm 1 mps 734 mmHg 59%
    23:00 +6°C° 0 mm 1 mps 734 mmHg 57%

    30 January, Thursday

    Time Temperature Precipitation Wind Pressure Humidity
    00:00 +6°C° 0 mm 1 mps 734 mmHg 57%
    01:00 +6°C° 0 mm 1 mps 734 mmHg 56%
    02:00 +5°C° 0 mm 1 mps 734 mmHg 56%
    03:00 +5°C° 0 mm 1 mps 734 mmHg 56%
    04:00 +4°C° 0 mm 2 mps 734 mmHg 55%
    05:00 +4°C° 0 mm 2 mps 734 mmHg 55%
    06:00 +4°C° 0 mm 2 mps 735 mmHg 59%
    07:00 +4°C° 0 mm 2 mps 735 mmHg 63%
    08:00 +3°C° 0 mm 2 mps 736 mmHg 66%
    09:00 +5°C° 0 mm 2 mps 736 mmHg 60%
    10:00 +6°C° 0 mm 2 mps 736 mmHg 53%
    11:00 +7°C° 0 mm 2 mps 737 mmHg 46%
    12:00 +8°C° 0 mm 3 mps 737 mmHg 44%
    13:00 +8°C° 0 mm 3 mps 736 mmHg 42%
    14:00 +7°C° 0 mm 4 mps 736 mmHg 40%
    15:00 +6°C° 0.1 mm 4 mps 736 mmHg 44%
    16:00 +5°C° 0.1 mm 3 mps 737 mmHg 48%
    17:00 +4°C° 0.1 mm 3 mps 737 mmHg 51%
    18:00 +3°C° 0 mm 3 mps 737 mmHg 55%
    19:00 +3°C° 0 mm 3 mps 738 mmHg 58%
    20:00 +2°C° 0 mm 3 mps 738 mmHg 61%
    21:00 +2°C° 0 mm 3 mps 739 mmHg 61%
    22:00 +1°C° 0 mm 3 mps 739 mmHg 61%
    23:00 +1°C° 0 mm 3 mps 740 mmHg 61%

    31 January, Friday

    Time Temperature Precipitation Wind Pressure Humidity
    00:00 +1°C° 0 mm 3 mps 740 mmHg 62%
    01:00 +1°C° 0 mm 3 mps 740 mmHg 62%
    02:00 0°C° 0 mm 3 mps 740 mmHg 62%
    03:00 +1°C° 0 mm 2 mps 740 mmHg 63%
    04:00 +1°C° 0 mm 2 mps 741 mmHg 63%
    05:00 +1°C° 0 mm 2 mps 741 mmHg 64%
    06:00 +1°C° 0 mm 2 mps 741 mmHg 63%
    07:00 +1°C° 0 mm 2 mps 741 mmHg 63%
    08:00 +1°C° 0 mm 2 mps 741 mmHg 62%
    09:00 +3°C° 0 mm 2 mps 742 mmHg 55%
    10:00 +4°C° 0 mm 2 mps 742 mmHg 48%
    11:00 +5°C° 0 mm 3 mps 742 mmHg 40%
    12:00 +7°C° 0 mm 3 mps 742 mmHg 38%
    13:00 +8°C° 0 mm 3 mps 741 mmHg 35%
    14:00 +9°C° 0 mm 3 mps 741 mmHg 32%
    15:00 +8°C° 0 mm 3 mps 741 mmHg 36%
    16:00 +7°C° 0 mm 2 mps 741 mmHg 41%
    17:00 +6°C° 0 mm 2 mps 741 mmHg 45%
    18:00 +5°C° 0 mm 2 mps 741 mmHg 48%
    19:00 +4°C° 0 mm 2 mps 741 mmHg 50%
    20:00 +3°C° 0 mm 2 mps 741 mmHg 53%
    21:00 +3°C° 0 mm 2 mps 741 mmHg 50%
    22:00 +3°C° 0 mm 2 mps 741 mmHg 48%
    23:00 +4°C° 0 mm 1 mps 741 mmHg 46%
    Show more